Location: Freiburg+im+Breisgau
(48.0359°N, 7.8195°E)
Time: 10:10:00
(UTC+01:00)

Tiangong 1 - Visible Passes

Search period start: 22 November 2017 00:00
Search period end: 02 December 2017 00:00
Orbit: 284 x 308 km, 42.8° (Epoch: 21 November)

Date Brightness Start Highest point End Pass type
(mag) Time Alt. Az. Time Alt. Az. Time Alt. Az.
27 Nov 3.1 18:00:25 10° S 18:01:38 12° SSE 18:02:28 11° SE visible
28 Nov 2.7 18:05:43 10° SSW 18:07:34 17° SSE 18:08:19 16° SE visible
29 Nov 2.4 18:11:18 10° SW 18:13:24 22° S 18:14:01 20° SSE visible
30 Nov 2.3 18:16:56 10° SW 18:19:08 24° S 18:19:37 23° SSE visible
01 Dec 2.3 18:22:34 10° WSW 18:24:45 24° S 18:25:07 23° SSE visible
